Погода в Гольцовке

Россия / Ивановская область     57°28′28″N   41°53′58″E
темп.,
°C
ветер,
м/с
пор.,
м/с
влажн.,
%
обл.,
%
осадки,
мм/ч
давл.,
гПа
погр.,
м
17 октября, вс
вс1700:00+5зюз410901 0.3 1010427
03:00+4юз411943 0.3 1010407
06:00+3ююз413915 0.0 1010452
09:00+5юз5138540 0.0 1009721
12:00+7юз5975100 0.0 10091001
15:00+7юз51077100 0.1 10091209
18:00+6юз51183100 0.1 1009787
21:00+5юз41186100 0.1 1009626
18 октября, пн
пн1800:00+5юз4109099 0.0 1009535
03:00+4юз389699 0.0 1008329
06:00+4ююз259596 0.1 1008195
09:00+4зюз2697100 1.1 1007669
12:00+5зюз3685100 0.3 1007733
15:00+6зюз4680100 0.8 1006884
18:00+3юз49905 0.4 1006293
21:00+2зюз3108711 0.5 1007352
19 октября, вт
вт1900:00+2з488599 0.0 1008572
03:00+2зюз379484 0.0 1008404
06:00+2з3690100 0.1 1009545
09:00+2сз379691 0.3 1010471
12:00+4ссз357085 0.1 10111057
15:00+4ссз357176 0.3 10121057
18:00+2сз489173 0.1 1014595
21:00+1сз278996 0.1 1015396
20 октября, ср
ср2000:00−1зсз239438 0.0 101553
03:00−1зсз269762 0.0 1016171
06:00−1сз388428 0.2 1018446
09:00−1сз478123 0.2 1019487
12:00+1сз4570100 0.0 1019905
15:00+1сз3469100 0.0 1019976
18:00+1з2366100 0.0 1020157
21:00−2ююз268429 0.0 1019153
21 октября, чт
чт2100:00−2ю4107593 0.0 1017384
03:00−1ю51472100 0.0 1014538
06:000ю61679100 0.2 1010673
09:00+2ююз71684100 1.1 1006801
12:00+3ююз71687100 0.4 1003715
15:00+5ююз71792100 3.8 1001729
18:00+6ююз71784100 1.1 999763
21:00+7юз71783100 1.9 996860